Georgetown, DE

11:52 AM EDT on March 29, 2017 (GMT -0400)
Sussex County

Weather History for KGED - February, 2014

Change the Weather History Date:

Sunday, February 9, 2014

  Actual Average Record
Temperature  
Mean Temperature 28 °F 36 °F  
Max Temperature 35 °F 46 °F 69 °F (1965)
Min Temperature 21 °F 27 °F 0 °F (1967)
Degree Days  
Heating Degree Days 37 29  
Month to date heating degree days 265 261  
Since 1 July heating degree days 2811 2771  
Cooling Degree Days 0 0  
Month to date cooling degree days 0 0  
Year to date cooling degree days 0 0  
Moisture  
Dew Point 20 °F    
Average Humidity 70    
Maximum Humidity 92    
Minimum Humidity 47    
Precipitation  
Precipitation T in 0.10 in 0.98 in (1994)
Month to date precipitation 1.73 0.87  
Year to date precipitation 4.77 3.79  
Sea Level Pressure  
Sea Level Pressure 30.13 in    
Wind  
Wind Speed 4 mph (NNW)    
Max Wind Speed 13 mph    
Max Gust Speed 16 mph    
Visibility 8 miles    
Events Snow    
T = Trace of Precipitation, MM = Missing Value Source: NWS Daily Summary

Daily Weather History Graph

Daily Weather History Graph

Search for Another Location

Airport or City:

Trip Planner

Search our weather history database for the weather conditions in past years. The results will help you decide how hot, cold, wet, or windy it might be!

Date:

Astronomy

Feb. 09, 2014 Rise Set
Actual Time 6:59 AM EST 5:32 PM EST
Civil Twilight 6:31 AM EST 6:00 PM EST
Nautical Twilight 6:00 AM EST 6:31 PM EST
Astronomical Twilight 5:29 AM EST 7:02 PM EST
Moon 1:11 PM EST (2/9) 3:01 AM EST (2/9)
Length of Visible Light 11h 28m
Length of Day
10h 33m
Waxing Gibbous, 77% of the Moon is Illuminated
Feb 9
Waxing Gibbous
Feb 14
Full
Feb 22
Last Quarter
Mar 1
New
Mar 8
First Quarter

Hourly Weather History & Observations

Time (EST) Temp. Windchill Dew Point Humidity Pressure Visibility Wind Dir Wind Speed Gust Speed Precip Events Conditions
12:54 AM 24.1 °F - 19.9 °F 84% 30.21 in 6.0 mi Calm Calm - N/A   Clear
1:54 AM 23.0 °F - 19.0 °F 85% 30.20 in 5.0 mi Calm Calm - N/A   Clear
2:54 AM 21.9 °F - 19.0 °F 89% 30.20 in 5.0 mi Calm Calm - N/A   Clear
3:54 AM 21.9 °F 15.7 °F 18.0 °F 85% 30.20 in 6.0 mi North 4.6 mph - N/A   Clear
4:54 AM 24.1 °F 19.7 °F 17.1 °F 75% 30.20 in 8.0 mi North 3.5 mph - N/A   Overcast
5:54 AM 25.0 °F 18.1 °F 17.1 °F 72% 30.20 in 8.0 mi North 5.8 mph - N/A   Overcast
6:54 AM 26.1 °F 19.4 °F 17.1 °F 69% 30.20 in 8.0 mi North 5.8 mph - N/A   Overcast
7:54 AM 27.0 °F 21.6 °F 18.0 °F 69% 30.19 in 6.0 mi NNE 4.6 mph - N/A   Haze
8:54 AM 28.0 °F 21.7 °F 18.0 °F 66% 30.21 in 8.0 mi NE 5.8 mph - N/A   Overcast
9:54 AM 28.9 °F 25.2 °F 15.1 °F 56% 30.22 in 10.0 mi North 3.5 mph - N/A   Overcast
10:54 AM 30.0 °F - 15.1 °F 54% 30.20 in 10.0 mi Calm Calm - N/A   Overcast
11:54 AM 32.0 °F 26.4 °F 17.1 °F 54% 30.14 in 10.0 mi ESE 5.8 mph - N/A   Overcast
12:54 PM 33.1 °F 30.0 °F 16.0 °F 50% 30.10 in 10.0 mi Variable 3.5 mph - N/A   Clear
1:54 PM 33.1 °F 26.9 °F 18.0 °F 54% 30.11 in 10.0 mi South 6.9 mph - N/A   Overcast
2:54 PM 35.1 °F - 19.9 °F 54% 30.07 in 9.0 mi Calm Calm - N/A   Overcast
3:54 PM 34.0 °F - 21.0 °F 59% 30.06 in 10.0 mi North - - N/A   Overcast
4:54 PM 33.1 °F 26.9 °F 19.9 °F 59% 30.04 in 10.0 mi South 6.9 mph - N/A   Overcast
5:54 PM 33.1 °F 26.9 °F 23.0 °F 66% 30.03 in 10.0 mi South 6.9 mph - N/A   Overcast
6:54 PM 32.0 °F 28.7 °F 25.0 °F 75% 30.02 in 5.0 mi South 3.5 mph - 0.00 in Snow Light Snow
7:54 PM 32.0 °F - 25.0 °F 75% 30.01 in 8.0 mi Calm Calm - 0.00 in   Overcast
8:54 PM 32.0 °F 28.7 °F 26.1 °F 79% 30.03 in 8.0 mi NNW 3.5 mph - N/A   Overcast
9:54 PM 32.0 °F 27.5 °F 26.1 °F 79% 30.06 in 5.0 mi NNW 4.6 mph - 0.00 in   Haze
10:54 PM 32.0 °F 28.7 °F 26.1 °F 79% 30.06 in 7.0 mi WSW 3.5 mph - N/A   Mostly Cloudy
11:54 PM 30.9 °F 27.5 °F 26.1 °F 82% 30.06 in 6.0 mi WSW 3.5 mph - N/A   Haze